Location: Bergueneuse
(50.4692°N, 2.2550°E)
Time: 22:19:52
(UTC+00:00)

Daily predictions for brighter satellites

Satellite Brightness Start Highest point End
(mag) Time Altitude Azimuth Time Altitude Azimuth Time Altitude Azimuth
Cosmos 1898 Rocket 4.2 18:09:41 10° SW 18:14:47 60° WNW 18:19:58 10° NNE
Meteor 2-9 Rocket 4.4 18:11:08 10° SSW 18:16:59 86° WNW 18:22:44 10° NNE
Cosmos 1300 Rocket 3.9 18:16:12 10° SSE 18:20:22 42° E 18:24:35 10° NNE
Okean 1 Rocket 4.5 18:20:45 10° SE 18:23:50 19° E 18:26:56 10° NE
CENTAUR R/B 3.2 18:16:22 10° NW 18:24:15 75° NE 18:33:02 10° SE
Sich 1 Rocket 3.6 18:20:10 10° S 18:24:40 73° E 18:29:15 10° NNE
NOSS 2-2 (E) 3.4 18:21:30 10° SW 18:25:03 77° NW 18:29:15 10° NE
Cosmos 1833 Rocket 4.0 18:21:00 10° NNW 18:25:36 25° NE 18:30:11 10° E
Cosmos 2298 Rocket 4.2 18:21:37 10° S 18:26:43 50° ESE 18:31:52 10° NNE
Cosmos 1975 4.0 18:23:59 10° SSW 18:27:57 50° WNW 18:31:56 10° N
Resurs 01 Rocket 3.7 18:26:53 10° ENE 18:28:01 11° NE 18:29:09 10° NE
Iridium 4 Rocket 4.2 18:23:55 10° SSW 18:29:08 67° W 18:34:50 10° N
CSL-04 Debris 4.1 18:25:53 10° SSE 18:31:15 77° ENE 18:36:40 10° NNW
Helios 1A Rocket 4.4 18:29:10 10° S 18:33:06 42° W 18:37:03 10° NNW
CSL-04 Rocket 3.7 18:27:46 10° SSE 18:33:13 77° ENE 18:38:46 10° NNW
Cosmos 1025 Rocket 3.0 18:29:08 10° N 18:33:32 70° E 18:37:55 10° SSE
ATLAS 2AS CENTAUR R/B 3.8 18:28:27 10° SSE 18:34:51 28° ESE 18:41:15 10° ENE
Okean 2 Rocket 3.1 18:30:29 10° S 18:34:53 60° E 18:39:18 10° NNE
NOSS 2-2 (D) 3.3 18:31:23 10° SW 18:34:54 78° NW 18:39:02 10° NE
Cosmos 1937 Rocket 4.3 18:29:48 10° SW 18:34:56 56° WNW 18:40:04 10° NNE
YAOGAN 1 2.9 18:31:28 10° S 18:35:47 73° WSW 18:40:08 10° NNW
ATLAS 3B R/B 3.3 18:30:05 10° NW 18:36:30 43° NNE 18:42:35 12° E
SKYMED 2 4.4 18:33:10 10° N 18:37:26 56° WNW 18:41:41 10° SSW
SWAS 4.4 18:35:01 10° NNW 18:39:20 81° ENE 18:43:37 10° SSE
Abrixas rocket 2.7 18:37:20 10° W 18:40:02 40° SSW 18:42:11 14° SE
CREW DRAGON DEMO-1 DEB 3.2 18:38:54 10° WNW 18:41:53 55° SSW 18:44:16 15° SE
Cosmos 1513 Rocket 4.4 18:36:18 10° S 18:42:30 74° E 18:48:38 10° NNE
Cosmos 1536 Rocket 3.6 18:38:51 10° N 18:43:19 67° ENE 18:47:46 10° SSE
Cosmos 1125 Rocket 3.8 18:42:19 10° S 18:47:22 47° ESE 18:52:28 10° NNE
SJ-6B 3.6 18:48:31 15° ESE 18:51:06 31° ENE 18:54:30 10° N
CZ-4 R/B 2.9 18:49:29 10° S 18:53:28 40° W 18:57:25 10° NNW
USA 238 DEB 4.3 18:46:28 10° NW 18:53:35 65° SW 19:00:58 10° SSE
USA 238 4.3 18:46:34 10° NW 18:53:42 66° SW 19:01:05 10° SSE
Cosmos 2150 Rocket 4.0 18:48:52 10° SSW 18:54:15 76° ESE 18:59:45 10° NNE
SJ-11-01 4.4 18:49:44 10° SSE 18:54:27 80° WSW 18:59:10 10° NNW
CZ-2C R/B 3.6 18:50:11 10° S 18:55:34 69° WSW 19:01:16 10° NNW
Cosmos 1674 2.7 18:51:53 10° N 18:55:43 59° ENE 18:59:30 10° SSE
Cosmos 1464 Rocket 4.0 18:49:42 10° S 18:55:50 87° E 19:02:06 10° N
Cosmos 2026 Rocket 4.5 18:50:14 10° N 18:56:16 42° ENE 19:02:16 10° SE
Cosmos 1092 Rocket 4.1 18:50:32 10° N 18:56:34 52° ENE 19:02:37 10° SSE
Okean-O 4.4 18:53:19 10° SSW 18:57:22 35° W 19:01:28 10° NNW
Cosmos 2285 Rocket 4.2 18:52:06 10° S 18:58:07 49° ESE 19:04:14 10° NNE
MOS 1 Rocket 3.0 18:58:00 10° NNE 19:02:24 67° E 19:06:40 10° S
FREGAT/IRIS 3.1 19:04:41 30° ENE 19:04:48 30° ENE 19:07:10 10° N
ARGOS 3.2 19:05:45 10° SSE 19:11:07 83° WSW 19:16:33 10° NNW
CZ-2C R/B 3.0 19:07:14 10° NNE 19:12:35 45° E 19:17:56 10° S
Cosmos 1340 Rocket 3.7 19:15:11 27° E 19:15:11 27° E 19:18:32 10° NNE
Cosmos 1733 3.6 19:13:48 14° SSE 19:16:47 40° E 19:20:23 10° NNE
Cosmos 2151 Rocket 3.8 19:13:06 10° SSW 19:17:33 73° W 19:22:06 10° N
Lacrosse 5 rocket 2.6 19:14:00 10° WNW 19:18:05 37° N 19:20:43 20° ENE
MOS 1 4.3 19:13:04 11° SSE 19:18:33 68° ENE 19:24:14 10° NNW
Cosmos 2082 Rocket 3.1 19:13:51 10° NNW 19:18:52 32° NE 19:21:17 23° E
BREEZE-M DEB (TANK) 4.1 19:19:10 10° W 19:22:12 33° SSW 19:27:36 15° SE
DMSP B5D2-2 4.3 19:17:21 10° NNE 19:22:27 45° E 19:27:29 10° S
BREEZE-M R/B 4.0 19:12:58 10° WSW 19:23:04 55° SSE 19:24:25 33° ESE
Cosmos 494 Rocket 4.5 19:18:43 10° NNW 19:23:55 61° WSW 19:29:06 10° S
Meteor 1-15 Rocket 4.2 19:22:37 10° S 19:28:17 88° E 19:34:06 10° NNE
Cosmos 1805 3.1 19:24:45 10° S 19:28:39 77° E 19:32:35 10° NNE
OBJECT-B 1.2 19:28:48 42° ENE 19:28:48 42° ENE 19:31:54 10° N
Ariane Rocket 3.0 19:28:06 11° SSE 19:32:58 86° WSW 19:38:06 10° NNW
SL-08 RB Rocket 3.9 19:28:29 10° S 19:33:03 69° WSW 19:37:34 10° NNW
H-2A R/B 3.3 19:29:51 10° SSW 19:34:35 41° W 19:39:28 10° NNW
Cosmos 1269 Rocket 4.0 19:30:34 10° NNW 19:35:55 83° WSW 19:39:33 21° SSE
Cosmos 1626 1.9 19:37:19 10° N 19:41:02 83° E 19:42:02 47° SSE
Okean 1-7 Rocket 4.0 19:36:55 10° N 19:41:18 43° ENE 19:41:50 41° E
Terra 4.1 19:42:51 11° NE 19:42:51 11° NE 19:43:51 10° NE
MetOp-A 4.1 19:40:20 17° SSE 19:44:31 86° WSW 19:49:55 10° NNW
USA 186 2.9 19:42:34 19° SSW 19:44:33 44° W 19:47:45 10° NNW
COSMOS 2406 3.1 19:39:25 10° NNW 19:45:09 86° ENE 19:47:55 32° SSE
Cosmos 1455 Rocket 4.2 19:47:18 28° NE 19:47:18 28° NE 19:49:55 10° NNE
Cosmos 1844 Rocket 3.3 19:41:44 10° SW 19:47:13 57° NW 19:52:46 10° NNE
ISS -3.7 19:44:13 10° W 19:47:36 70° N 19:47:46 68° NNE
Cosmos 2278 Rocket 2.5 19:46:06 10° S 19:51:32 40° ESE 19:56:36 10° NE
Lacrosse 4 Rocket 1.7 19:48:47 10° NNW 19:52:44 47° NE 19:52:51 47° NE
Cosmos 1844 4.2 19:49:16 10° SW 19:54:53 61° NW 20:00:28 10° NNE
Meteor 2-5 Rocket 4.1 19:49:46 10° NNW 19:55:23 64° W 20:00:46 12° S
Meteor 1-22 Rocket 4.3 19:50:15 10° S 19:56:10 78° E 20:02:17 10° NNE
Meteor 1-24 Rocket 3.8 19:52:09 10° NNW 19:57:44 78° W 20:01:37 21° S
Cosmos 909 Rocket 4.2 19:51:13 10° NW 19:57:49 59° NE 19:59:55 40° ESE
Exosat Rocket 3.8 19:54:01 10° SW 19:59:14 68° WNW 20:04:18 10° NNE
Cosmos 2266 Rocket 4.4 19:54:11 10° N 19:59:52 40° ENE 20:00:34 39° E
SL-14 R/B 3.5 19:57:02 10° NNW 20:00:58 69° W 20:01:55 48° SSW
Okean 1 Rocket 3.7 19:56:54 10° SSW 20:01:19 56° WNW 20:05:46 10° N
Meteor 2-19 Rocket 4.4 19:55:48 10° N 20:01:53 64° ENE 20:03:47 43° SE
NOSS 3-4 (A) 3.3 19:56:21 10° SW 20:02:16 77° SE 20:08:40 10° NE
NOSS 3-4 (C) 3.3 19:56:27 10° SW 20:02:22 77° SE 20:08:46 10° NE
Resurs 01 Rocket 1.5 20:03:26 64° E 20:03:40 65° ENE 20:08:06 10° N
Cosmos 1470 4.5 20:12:29 23° NNE 20:12:29 23° NNE 20:14:03 10° NNE
Cosmos 1833 Rocket 2.6 20:04:33 10° NNW 20:10:14 84° WSW 20:11:54 48° SSE
Cosmos 1766 4.3 20:06:43 10° SSW 20:10:30 46° WNW 20:14:22 10° N
CZ-2C R/B 4.2 20:06:43 10° NNE 20:09:57 43° NE 20:09:57 43° NE
Cosmos 2251 Rocket 3.5 20:07:47 10° NNW 20:13:09 65° ENE 20:13:44 60° E
CENTAUR R/B 4.2 20:07:25 10° NW 20:14:48 39° WSW 20:22:00 13° S
ERS-1 Rocket 4.2 20:17:39 28° NE 20:17:39 28° NE 20:21:14 10° N
ARIANE 5 R/B 3.2 20:20:05 46° NNE 20:20:05 46° NNE 20:23:28 10° N
SPOT 3 Rocket 3.7 20:20:50 45° S 20:22:21 69° WSW 20:27:32 10° NNW
Cosmos 1634 Rocket 4.3 20:18:34 10° SSW 20:24:41 65° WNW 20:30:53 10° N
ATLAS 2AS CENTAUR R/B 3.0 20:17:06 10° SW 20:25:06 90° SSW 20:32:59 10° NE
Resurs 1-3 4.3 20:26:18 45° SW 20:27:05 51° W 20:31:24 10° NNW
Landsat 7 4.2 20:27:59 53° NNE 20:27:59 53° NNE 20:31:59 10° N
ATLAS 3B R/B 2.8 20:20:50 10° NW 20:27:38 69° SW 20:29:50 45° SSE
Cosmos 1892 Rocket 4.2 20:23:48 10° NNW 20:28:01 52° W 20:28:35 48° WSW
SPOT 5 4.1 20:33:48 34° NE 20:33:48 34° NE 20:37:47 10° N
Meteor 1-21 Rocket 4.2 20:27:18 10° N 20:33:06 69° ENE 20:33:16 69° E
Cosmos 1655 Rocket 3.9 20:30:20 10° N 20:36:40 88° E 20:37:49 62° SSE
Cosmos 1461 4.0 20:35:35 10° NNW 20:39:30 44° NNE 20:39:30 44° NNE
CZ-2C R/B 4.2 20:47:45 10° N 20:52:46 36° WNW 20:57:48 10° SW
Lacrosse 5 rocket 2.6 20:53:17 10° WNW 20:56:20 43° NW 20:56:20 43° NW
MetOp-B 4.4 20:58:51 64° W 20:58:51 64° W 21:04:08 10° NNW
Cosmos 2098 Rocket 4.1 20:54:18 10° NNW 21:01:02 64° W 21:01:45 59° SW
OBJECT-B 3.9 21:01:59 13° WNW 21:01:59 13° WNW 21:03:08 10° WNW
Cosmos 2082 Rocket 2.5 20:57:47 10° NW 21:03:08 58° WSW 21:03:08 58° WSW
Spot 2 Rocket 4.0 21:05:26 57° NW 21:05:26 57° NW 21:09:31 10° NNW
Cosmos 1809 Rocket 4.5 21:08:26 10° NNW 21:14:13 76° NW 21:14:13 76° NW
Terra 3.4 21:21:44 29° N 21:21:44 29° N 21:24:08 10° N
ATLAS CENTAUR R/B 4.3 21:27:02 10° NNW 21:27:26 12° NNW 21:27:26 12° NNW
Lacrosse 4 Rocket 4.0 21:27:54 10° WNW 21:29:10 16° WNW 21:29:10 16° WNW
Cosmos 2278 Rocket 3.2 21:33:01 28° WSW 21:35:26 43° NW 21:40:50 10° NNE
Resurs 01 Rocket 4.1 21:41:01 17° W 21:41:01 17° W 21:43:30 10° NW
ATLAS 2AS CENTAUR R/B 4.1 22:09:35 10° W 22:17:01 40° NNW 22:24:13 10° NE
NOSS 3-1 (C) 4.4 22:31:50 10° NW 22:37:24 57° NNW 22:37:24 57° NNW
CZ-4C R/B 4.2 22:45:17 24° NNE 22:45:17 24° NNE 22:48:03 10° NE
COSMOS 2455 4.5 22:57:42 30° NNW 22:57:42 30° NNW 23:01:51 10° NNE
Cosmos 2297 Rocket 4.3 22:53:25 10° NNW 22:56:26 21° NNE 22:56:26 21° NNE
Cosmos 2369 Rocket 4.4 23:10:31 19° NNE 23:10:31 19° NNE 23:12:07 10° NNE
SL-16 R/B 4.3 23:50:37 24° NE 23:50:37 24° NE 23:54:48 10° N
